Location: Newark
(61.8833°N, 30.0500°E)
Time: 04:25:03
(UTC+00:00)

ISS - Visible Passes

Search period start: 22 November 2019 00:00
Search period end: 02 December 2019 00:00
Orbit: 412 x 421 km, 51.6° (Epoch: 22 November)

Date Brightness Start Highest point End Pass type
(mag) Time Alt. Az. Time Alt. Az. Time Alt. Az.
28 Nov -1.2 15:56:02 10° S 15:57:17 12° SSE 15:57:17 12° SSE visible
29 Nov -1.1 15:08:31 10° S 15:09:18 11° SSE 15:10:05 10° SE visible
29 Nov -0.9 16:43:03 10° SW 16:43:37 12° SSW 16:43:37 12° SSW visible
30 Nov -1.4 15:54:52 10° SSW 15:56:48 15° S 15:57:02 14° S visible
01 Dec -1.2 15:06:49 10° SSW 15:08:33 14° SSE 15:10:18 10° SE visible
01 Dec -0.9 16:42:29 10° SW 16:43:20 13° SSW 16:43:20 13° SSW visible
